TimeHST,TemperatureF,Dew PointF,Humidity,Sea Level PressureIn,VisibilityMPH,Wind Direction,Wind SpeedMPH,Gust SpeedMPH,PrecipitationIn,Events,Conditions,WindDirDegrees,DateUTC
12:53 AM,72.0,62.1,71,30.14,10.0,NE,11.5,-,N/A,,Overcast,50,2013-01-22 10:53:00
1:53 AM,72.0,61.0,68,30.14,10.0,ENE,11.5,-,N/A,,Overcast,60,2013-01-22 11:53:00
2:53 AM,71.1,61.0,70,30.12,10.0,ENE,12.7,-,N/A,,Mostly Cloudy,70,2013-01-22 12:53:00
3:53 AM,71.1,61.0,70,30.12,10.0,ENE,12.7,-,N/A,,Scattered Clouds,70,2013-01-22 13:53:00
4:53 AM,71.1,62.1,73,30.12,10.0,ENE,10.4,-,N/A,,Clear,60,2013-01-22 14:53:00
5:53 AM,72.0,62.1,71,30.13,10.0,ENE,13.8,-,N/A,,Mostly Cloudy,70,2013-01-22 15:53:00
6:53 AM,71.1,61.0,70,30.14,10.0,ENE,12.7,-,N/A,,Clear,60,2013-01-22 16:53:00
7:53 AM,72.0,62.1,71,30.15,10.0,ENE,11.5,-,N/A,,Partly Cloudy,70,2013-01-22 17:53:00
8:53 AM,73.9,64.0,71,30.17,10.0,ENE,10.4,-,N/A,,Mostly Cloudy,70,2013-01-22 18:53:00
9:53 AM,73.9,64.9,73,30.18,10.0,East,13.8,-,N/A,,Overcast,80,2013-01-22 19:53:00
10:53 AM,75.9,66.0,71,30.17,10.0,ENE,12.7,-,N/A,,Overcast,70,2013-01-22 20:53:00
11:36 AM,73.4,64.4,73,30.17,10.0,ENE,15.0,-,0.00,Rain,Light Rain,70,2013-01-22 21:36:00
11:53 AM,75.0,66.0,73,30.15,10.0,ENE,15.0,-,0.00,,Mostly Cloudy,70,2013-01-22 21:53:00
12:34 PM,75.2,64.4,69,30.13,10.0,ENE,11.5,-,N/A,,Overcast,60,2013-01-22 22:34:00
12:53 PM,75.9,66.0,71,30.12,10.0,ENE,9.2,-,N/A,,Mostly Cloudy,60,2013-01-22 22:53:00
1:53 PM,75.9,64.0,67,30.09,10.0,ENE,10.4,-,N/A,,Scattered Clouds,60,2013-01-22 23:53:00
2:09 PM,75.2,64.4,69,30.09,10.0,ENE,11.5,-,N/A,,Mostly Cloudy,60,2013-01-23 00:09:00
2:17 PM,75.2,64.4,69,30.09,10.0,ENE,11.5,-,N/A,,Scattered Clouds,60,2013-01-23 00:17:00
2:43 PM,75.2,64.4,69,30.09,10.0,ENE,11.5,-,N/A,,Mostly Cloudy,60,2013-01-23 00:43:00
2:53 PM,75.9,64.0,67,30.08,10.0,ENE,11.5,-,N/A,,Mostly Cloudy,70,2013-01-23 00:53:00
3:08 PM,75.2,64.4,69,30.08,10.0,NE,11.5,-,N/A,,Scattered Clouds,50,2013-01-23 01:08:00
3:53 PM,75.0,63.0,66,30.08,10.0,ENE,11.5,-,N/A,,Scattered Clouds,60,2013-01-23 01:53:00
4:37 PM,73.4,62.6,69,30.08,10.0,ENE,11.5,-,N/A,,Mostly Cloudy,60,2013-01-23 02:37:00
4:49 PM,73.4,62.6,69,30.08,10.0,NE,11.5,-,N/A,,Scattered Clouds,50,2013-01-23 02:49:00
4:53 PM,73.0,62.1,68,30.07,10.0,NE,10.4,-,N/A,,Scattered Clouds,50,2013-01-23 02:53:00
5:19 PM,73.4,62.6,69,30.09,10.0,NE,11.5,-,N/A,,Mostly Cloudy,50,2013-01-23 03:19:00
5:29 PM,71.6,62.6,73,30.09,10.0,ENE,12.7,-,N/A,,Scattered Clouds,60,2013-01-23 03:29:00
5:53 PM,72.0,62.1,71,30.09,10.0,ENE,13.8,-,N/A,,Scattered Clouds,60,2013-01-23 03:53:00
6:31 PM,71.6,62.6,73,30.09,10.0,NE,10.4,-,N/A,,Mostly Cloudy,50,2013-01-23 04:31:00
6:53 PM,71.1,62.1,73,30.10,10.0,NE,11.5,-,N/A,,Mostly Cloudy,50,2013-01-23 04:53:00
7:33 PM,71.6,62.6,73,30.11,10.0,NE,13.8,-,N/A,,Scattered Clouds,50,2013-01-23 05:33:00
7:53 PM,71.1,62.1,73,30.12,10.0,NE,11.5,-,N/A,,Mostly Cloudy,50,2013-01-23 05:53:00
8:01 PM,71.6,60.8,69,30.12,10.0,ENE,12.7,-,N/A,,Scattered Clouds,60,2013-01-23 06:01:00
8:09 PM,71.6,62.6,73,30.12,10.0,ENE,12.7,-,N/A,,Mostly Cloudy,60,2013-01-23 06:09:00
8:23 PM,71.6,60.8,69,30.12,10.0,ENE,12.7,-,N/A,,Scattered Clouds,60,2013-01-23 06:23:00
8:53 PM,70.0,61.0,73,30.12,10.0,ENE,12.7,-,N/A,,Scattered Clouds,60,2013-01-23 06:53:00
9:10 PM,71.6,60.8,69,30.12,10.0,ENE,12.7,-,N/A,,Mostly Cloudy,70,2013-01-23 07:10:00
9:30 PM,71.6,60.8,69,30.12,10.0,ENE,11.5,-,N/A,,Overcast,70,2013-01-23 07:30:00
9:43 PM,71.6,60.8,69,30.12,10.0,ENE,13.8,-,N/A,,Overcast,70,2013-01-23 07:43:00
9:51 PM,71.6,62.6,73,30.12,10.0,ENE,15.0,-,N/A,,Overcast,70,2013-01-23 07:51:00
9:53 PM,71.1,61.0,70,30.12,10.0,ENE,15.0,-,N/A,,Overcast,70,2013-01-23 07:53:00
10:53 PM,72.0,61.0,68,30.11,10.0,East,16.1,-,N/A,,Overcast,80,2013-01-23 08:53:00
11:29 PM,71.6,60.8,69,30.11,10.0,NE,10.4,-,N/A,,Overcast,50,2013-01-23 09:29:00
11:53 PM,72.0,61.0,68,30.10,9.0,ENE,13.8,-,N/A,,Overcast,70,2013-01-23 09:53:00